Flag for India Weather past 2 weeks in Kapurthala, Punjab, India

Now
93 °F

Sunny.


Feels Like: 92 °F
Forecast: 73 / 99 °F
Wind: 6 mph from Northwest

Location: Amritsar Airport


UV Index: 7 (High)

Visibility: 10 mi


Pressure: 29.80 "Hg

Humidity: 30%

Dew point: 57 °F

Location of KapurthalaLocation

Historic Weather in Kapurthala

°F

Kapurthala temperature yesterday

Maximum temperature yesterday: 91 °F (at 3:00 PM)
Minimum temperature yesterday: 63 °F (at 5:30 AM)
Average temperature yesterday: 78 °F

Past Weeks' High & Low Weather Summary

 TemperatureHumidityPressure
High93 °F (Apr 23, 2:30 PM)100% (Apr 18, 7:00 PM)32.43 "Hg (Apr 18, 7:00 PM)
Low55 °F (Apr 10, 5:00 AM)21% (Apr 14, 1:00 PM)29.71 "Hg (Apr 17, 2:30 AM)
Average73 °F63%29.89 "Hg
* Reported Apr 8 3:30 PM — Apr 23 4:00 PM, Kapurthala, Weather by CustomWeather, © 2014

Note: Actual official high and low records may vary slightly from our data, if they occured in-between our weather recording intervals... More about our weather records

Advertising

Historic Weather Conditions — Data for Previous 24 hours

 ConditionsComfort  
Time TempWeatherWind HumidityBarometerVisibility
4:00 PM
Apr 23
93 °FSunny.6 mph28%29.80 "Hg10 mi
3:30 PM93 °FSunny.6 mph28%29.80 "Hg10 mi
3:00 PM93 °FSunny.6 mph28%29.83 "Hg10 mi
2:30 PM93 °FSunny.6 mph30%29.83 "Hg10 mi
2:00 PM91 °FSunny.6 mph32%29.86 "Hg10 mi
1:30 PM91 °FSunny.7 mph32%29.89 "Hg10 mi
1:00 PM90 °FSunny.9 mph36%29.89 "Hg10 mi
12:30 PM90 °FPassing clouds.7 mph36%29.92 "Hg6 mi
12:00 PM88 °FClear.7 mph38%29.92 "Hg6 mi
11:30 AM86 °FClear.5 mph40%29.92 "Hg5 mi
11:00 AM84 °FClear.3 mph43%29.92 "Hg4 mi
10:30 AM82 °FScattered clouds.3 mph48%29.92 "Hg4 mi
10:00 AM82 °FScattered clouds.5 mph48%29.92 "Hg4 mi
8:00 AM72 °FScattered clouds.No wind69%29.92 "Hg2 mi
7:30 AM68 °FScattered clouds.No wind78%29.92 "Hg2 mi
7:00 AM68 °FFog.No wind78%29.92 "Hg2 mi
6:30 AM66 °FFog.No wind83%29.89 "Hg2 mi
6:00 AM68 °FFog.No wind83%29.89 "Hg2 mi
5:30 AM68 °FFog.No wind83%29.89 "Hg2 mi
5:00 AM70 °FFog.No wind73%29.89 "Hg2 mi
4:00 AM70 °FPassing clouds.2 mph78%29.89 "Hg2 mi
3:30 AM70 °FPassing clouds.2 mph78%29.89 "Hg2 mi
3:00 AM72 °FPassing clouds.2 mph73%29.89 "Hg2 mi
2:30 AM72 °FPassing clouds.No wind73%29.92 "Hg3 mi
2:00 AM72 °FPassing clouds.No wind73%29.92 "Hg3 mi
1:30 AM73 °FPassing clouds.No wind69%29.92 "Hg3 mi
1:00 AM73 °FPassing clouds.2 mph69%29.92 "Hg3 mi
12:00 AM75 °FPassing clouds.No wind61%29.95 "Hg3 mi
11:30 PM
Apr 22
77 °FPassing clouds.No wind57%29.95 "Hg3 mi
11:00 PM77 °FPassing clouds.No wind57%29.95 "Hg3 mi
10:30 PM77 °FPassing clouds.No wind57%29.95 "Hg3 mi
10:00 PM79 °FPassing clouds.No wind51%29.95 "Hg3 mi
9:30 PM79 °FPassing clouds.No wind51%29.95 "Hg3 mi
9:00 PM79 °FPassing clouds.5 mph51%29.92 "Hg3 mi
8:30 PM79 °FPassing clouds.6 mph51%29.92 "Hg3 mi
8:00 PM81 °FPassing clouds.5 mph45%29.89 "Hg3 mi
7:30 PM81 °FScattered clouds.No wind42%29.89 "Hg3 mi
7:00 PM82 °FScattered clouds.No wind40%29.89 "Hg4 mi
6:30 PM84 °FScattered clouds.2 mph35%29.89 "Hg4 mi
6:00 PM86 °FScattered clouds.3 mph33%29.89 "Hg4 mi
5:30 PM88 °FScattered clouds.5 mph31%29.89 "Hg4 mi
5:00 PM90 °FBroken clouds.6 mph29%29.92 "Hg4 mi
Weather by CustomWeather, © 2014

See weather overview